Wind_Speed
12 12 12 12 12 12 12 11 11 11 12 13 13 14 15 15 15 15 15 14 13 13 13 13 13 12 12 14 15 17 18 19 20 21 21 22 24 27 28 27 27 27 27 27 25 24 21 19 17 14 12 9 9 6 8 10 6 7 6 6 13 8 4 6 5 4 6 9 7 7 7 7 8 7 6 9 9 10 10 8 11 10 10 14 14 12 14 16
13 12 12 12 12 12 12 12 12 11 11 11 12 13 13 13 14 14 14 14 14 13 12 12 13 12 11 12 14 15 15 17 18 18 20 21 21 23 24 24 25 26 27 26 25 24 21 20 18 16 12 9 9 7 7 10 8 7 6 10 14 3 7 4 4 4 5 8 7 7 7 6 8 7 7 10 10 9 10 9 11 12 13 16 14 12 12 15
14 13 13 13 13 13 13 13 12 12 12 11 11 12 12 12 12 13 13 14 14 13 12 12 12 12 10 10 12 13 13 15 14 16 20 20 20 21 22 22 22 24 25 25 25 23 20 20 19 17 12 10 10 8 8 8 9 9 9 13 11 0 4 3 4 3 4 7 8 7 7 7 7 8 9 10 9 9 10 10 12 14 15 16 12 12 13 14
15 14 14 13 13 13 13 13 13 13 12 12 12 12 11 11 11 12 12 13 13 13 13 12 11 11 10 9 9 11 10 8 10 16 19 18 19 20 20 20 20 22 23 24 24 23 20 18 19 17 13 12 12 11 10 9 9 9 12 13 5 2 2 4 3 3 5 5 8 8 7 8 7 8 9 10 9 9 9 10 13 14 13 13 12 12 13 14
15 15 15 14 14 14 14 14 14 13 13 13 13 12 12 11 11 11 11 11 12 12 13 12 11 11 10 9 8 8 5 2 8 18 17 15 19 19 20 20 19 21 21 23 24 24 22 18 18 18 16 14 13 13 14 12 11 9 11 10 4 0 1 4 3 3 4 5 8 7 7 8 8 9 8 10 8 7 9 11 13 13 11 11 11 12 13 14
16 16 16 15 15 15 15 15 14 14 14 13 13 13 12 12 11 11 11 11 11 11 11 12 11 10 10 9 7 6 4 4 7 15 15 15 18 19 20 20 20 20 21 23 24 23 24 20 19 20 18 17 16 15 14 12 13 13 10 8 5 4 2 2 2 3 3 6 8 8 8 8 9 8 8 10 6 5 10 11 13 14 11 10 10 12 14 14
18 17 17 17 16 16 16 16 15 15 14 14 14 14 13 13 12 12 12 12 11 10 10 11 11 10 10 9 8 7 9 8 8 16 15 13 16 19 20 20 20 21 22 23 24 24 24 22 22 21 19 18 17 16 15 13 13 15 12 8 7 7 5 2 2 3 3 6 8 8 9 8 8 8 9 10 6 8 10 12 13 14 13 12 11 12 13 14
19 19 18 18 18 18 17 17 16 16 15 15 14 14 14 13 13 12 13 12 11 11 10 10 10 10 9 9 9 8 8 6 11 22 19 14 15 18 20 20 21 22 22 23 23 24 24 24 24 22 20 19 17 16 15 14 14 16 14 10 8 7 7 5 4 4 4 6 8 9 10 9 8 8 9 10 9 10 11 13 14 13 14 14 13 13 13 15
20 20 20 19 19 19 18 18 18 17 16 16 15 14 14 14 14 13 14 13 12 12 12 11 11 11 9 9 9 8 8 9 15 22 21 17 16 17 19 20 21 22 22 23 23 24 25 25 25 24 21 19 18 17 15 16 16 15 15 13 10 9 9 7 6 6 6 7 9 10 10 9 8 7 9 11 10 11 13 13 12 12 13 14 14 15 15 17
21 21 21 21 20 20 20 19 19 18 18 17 16 15 15 14 14 14 15 14 13 12 13 13 12 12 11 10 9 9 10 11 13 17 19 20 18 17 19 20 22 22 22 23 23 24 25 25 25 23 22 20 18 19 17 17 17 12 11 13 14 13 11 9 8 7 7 9 11 11 10 10 10 8 9 12 11 12 15 14 12 12 13 14 15 16 16 17
22 22 22 22 22 21 21 21 20 20 19 18 17 17 15 15 14 15 15 15 14 14 14 14 14 13 13 12 10 10 12 11 11 15 18 20 20 19 20 21 22 21 22 23 23 24 25 24 22 19 21 22 19 19 19 19 17 12 11 12 13 14 13 11 9 8 9 10 12 12 10 11 12 9 9 14 13 13 16 15 14 14 14 15 16 16 17 17
21 22 22 22 23 23 22 22 21 21 20 20 19 18 17 16 15 16 15 15 15 15 15 15 15 15 15 15 10 9 14 14 14 15 16 19 21 21 21 21 21 21 22 22 22 23 24 24 22 20 21 20 20 18 17 19 19 15 14 13 13 14 15 14 12 11 10 12 13 12 11 13 14 10 9 15 14 13 17 16 15 16 15 15 16 17 17 17
20 21 22 22 23 23 23 23 22 22 22 22 21 20 19 18 17 17 16 16 16 16 16 16 17 17 18 16 11 10 14 13 14 16 16 18 19 20 22 22 21 21 22 22 20 20 23 25 23 23 21 19 21 19 12 15 20 17 15 16 15 14 16 15 13 12 12 13 14 13 12 14 16 12 11 16 14 14 17 17 17 17 16 16 15 16 17 18
19 20 21 22 22 23 23 23 23 23 23 23 22 22 21 20 19 18 18 17 17 17 17 17 18 19 21 16 12 14 14 13 14 16 16 16 18 20 21 22 22 22 22 23 21 20 22 23 22 22 24 23 21 19 15 13 17 19 17 17 17 16 15 14 14 14 14 14 15 15 13 12 15 14 15 17 15 16 18 18 19 18 18 17 15 14 15 16
20 20 20 21 22 22 23 23 23 23 23 24 23 23 22 22 21 20 20 19 18 18 17 18 19 20 23 19 15 15 14 14 14 14 15 16 17 19 20 21 22 22 22 22 21 21 21 21 24 25 24 25 22 19 18 17 18 19 19 19 18 17 13 13 15 15 16 15 15 17 13 8 11 15 17 18 16 17 18 18 19 19 19 19 17 16 14 15
21 21 20 21 21 21 22 22 22 22 23 23 23 23 23 23 23 22 21 20 20 19 18 19 18 19 22 20 17 14 13 13 12 14 16 16 17 15 18 20 21 22 22 22 19 20 23 24 27 27 23 24 26 22 18 19 22 21 21 20 18 18 14 13 15 15 17 15 16 19 14 7 9 14 18 18 17 17 18 18 19 19 20 20 19 18 17 16
21 22 21 21 22 22 22 21 22 22 21 23 22 22 23 23 23 23 23 22 22 20 20 21 19 20 20 19 18 14 13 13 10 14 16 16 16 14 16 20 19 20 21 22 22 22 25 27 27 26 24 25 27 25 22 23 24 23 23 21 18 18 16 14 14 16 18 16 17 19 16 10 9 14 18 18 18 18 17 18 19 19 20 21 21 20 20 19
21 21 22 22 22 23 22 21 21 21 21 22 22 21 22 23 23 23 23 23 23 22 21 21 20 19 13 14 17 10 10 12 8 12 15 15 17 16 17 17 16 19 19 20 23 22 23 24 24 24 26 29 28 30 30 26 24 23 23 21 19 18 18 16 15 18 20 18 17 19 18 13 9 15 18 17 17 18 17 17 18 19 20 22 21 21 21 21
20 20 21 22 22 23 23 22 22 21 20 20 21 20 20 22 23 22 24 24 24 23 19 18 20 17 7 7 10 9 12 13 9 11 12 13 16 16 16 15 14 17 18 18 21 22 22 22 25 28 31 33 32 33 33 28 23 22 21 20 20 19 19 18 16 17 21 19 18 19 19 17 12 14 17 16 17 18 18 17 18 19 20 22 22 22 22 23
21 21 21 21 22 23 23 23 22 22 21 19 20 20 20 22 20 19 24 24 21 22 20 20 25 22 15 10 10 10 16 19 17 13 12 14 15 15 16 17 16 17 19 19 20 21 23 24 29 33 32 32 32 32 30 29 25 22 22 20 20 21 20 17 17 17 20 21 21 19 19 19 17 16 17 16 17 18 19 18 18 20 21 22 22 22 23 24
21 21 21 21 21 23 23 23 22 22 21 19 19 19 20 22 19 19 25 25 21 22 23 24 27 26 22 18 15 16 19 22 21 17 15 16 15 15 19 20 19 21 22 20 19 20 24 28 31 32 30 29 30 30 29 30 28 25 23 22 21 22 21 19 19 19 20 21 20 20 20 20 20 19 18 17 18 19 19 19 19 19 20 21 22 23 23 24
22 21 21 21 21 22 23 23 22 22 21 20 19 19 20 20 21 22 25 27 22 21 24 24 25 28 24 21 21 22 24 25 23 20 18 18 18 18 21 22 23 23 22 21 21 22 26 31 30 29 28 28 28 30 31 30 30 28 25 23 22 21 22 21 20 20 21 20 19 19 20 20 21 21 20 19 20 20 19 20 20 20 20 21 22 23 23 24
23 22 22 22 21 22 23 23 23 21 20 20 19 20 20 19 21 22 24 28 24 18 23 24 22 25 23 21 22 25 28 28 25 22 20 21 22 20 20 23 24 23 23 25 26 25 28 30 29 27 27 29 29 29 31 31 31 31 28 24 22 21 23 21 17 17 19 18 17 18 19 20 20 21 22 21 20 20 20 20 20 20 21 21 21 22 22 23
24 24 23 22 21 22 23 23 22 21 20 20 19 20 20 19 20 22 23 28 28 20 19 20 21 23 22 21 24 27 27 26 25 23 22 25 23 21 22 23 24 24 24 26 28 28 26 24 26 28 26 28 31 29 29 32 32 32 31 26 23 23 23 21 17 17 16 16 18 18 18 20 22 22 23 23 22 22 21 21 22 22 22 21 21 22 21 22
25 24 24 23 22 22 23 23 22 21 20 19 20 19 19 19 18 20 22 24 26 22 16 16 19 21 23 24 24 24 23 25 26 23 23 27 24 23 24 22 24 26 26 26 28 29 27 21 22 28 29 28 31 32 31 31 31 32 32 30 26 23 21 22 20 19 18 19 22 22 17 17 22 24 23 23 23 24 23 23 24 24 24 24 22 23 23 22
26 25 24 24 23 22 22 23 21 21 20 19 19 18 17 17 16 17 19 19 21 21 18 15 15 17 23 25 23 20 20 24 27 22 23 27 24 24 23 22 24 25 25 25 26 28 27 23 22 27 31 30 30 33 32 30 31 32 31 30 29 25 22 23 22 20 19 19 21 24 19 16 19 23 24 24 24 25 25 25 26 25 26 27 25 24 23 23
26 26 24 23 24 23 22 22 21 20 19 19 18 16 16 14 13 13 13 14 15 13 16 17 16 16 18 20 23 21 15 15 20 21 25 27 25 26 25 23 23 23 23 23 25 27 26 26 26 26 29 32 33 34 33 32 33 31 27 27 29 30 27 26 25 23 21 19 19 24 25 21 19 21 23 25 25 26 27 26 26 26 26 27 27 26 25 24
26 26 26 23 24 25 23 22 22 19 20 20 17 15 14 13 12 9 7 8 5 6 12 18 18 19 17 18 23 22 14 11 14 17 23 26 25 27 27 25 23 22 22 24 26 25 24 29 30 28 30 33 34 33 31 30 32 30 26 23 25 28 28 29 29 26 21 20 21 24 26 21 19 21 21 23 26 27 28 28 26 25 25 25 25 26 26 25
26 27 26 23 23 25 23 24 23 19 20 19 17 14 13 12 10 7 8 8 6 7 13 15 15 18 19 20 22 23 17 13 10 11 19 25 25 26 26 25 22 21 23 26 27 22 21 27 29 28 31 32 31 30 30 30 30 28 26 25 25 26 28 30 30 27 23 21 22 25 26 19 16 21 23 22 25 27 27 27 26 25 24 24 25 26 27 26
27 27 27 25 23 24 24 24 24 21 19 18 16 14 13 12 9 10 11 9 8 10 13 16 14 14 19 21 22 25 21 15 12 11 18 23 24 26 24 22 22 22 23 26 28 24 20 21 26 29 29 29 28 28 30 31 29 26 26 28 28 25 25 26 29 30 24 20 24 28 29 23 16 19 25 25 25 25 25 25 24 24 25 25 25 24 25 28
27 27 28 26 24 23 23 24 24 21 19 18 16 14 13 13 13 14 12 9 9 11 13 15 14 15 21 22 20 24 23 19 17 16 19 22 23 27 25 21 23 24 24 27 28 28 23 20 24 29 28 27 27 29 29 29 29 27 26 29 27 23 23 23 28 30 19 14 24 29 30 28 21 20 24 25 25 23 24 25 23 23 24 24 22 18 19 27
28 27 27 27 26 23 22 25 24 20 20 18 15 15 14 14 18 22 15 6 7 12 14 14 16 19 21 22 20 21 23 22 22 20 22 24 25 29 30 26 26 25 25 27 26 27 30 27 23 24 27 28 28 30 30 29 31 30 28 30 26 19 18 17 18 21 17 18 26 26 26 28 27 24 23 23 23 23 24 25 24 22 22 24 22 17 15 19
28 28 26 27 27 23 22 25 24 21 20 18 16 17 16 15 20 25 23 14 7 7 10 14 19 20 21 23 21 20 21 22 24 23 23 25 25 28 32 29 27 26 24 24 24 25 27 29 28 25 26 30 31 32 32 31 33 33 33 33 26 16 12 11 12 15 17 22 27 25 21 22 25 26 26 25 23 22 23 25 23 21 20 22 21 19 17 16
28 29 27 26 27 25 23 24 25 23 20 18 19 19 21 23 22 20 24 25 18 9 6 11 17 20 22 23 22 21 22 21 22 24 24 26 26 28 31 32 30 28 24 21 24 25 22 23 32 33 27 28 34 35 33 30 31 34 34 33 30 24 17 12 12 13 15 19 25 26 22 20 22 22 23 27 26 21 20 23 24 21 19 19 18 19 22 19
28 28 27 26 26 26 23 24 25 24 21 20 21 23 29 31 25 21 23 25 24 19 12 11 16 19 22 23 22 23 24 22 21 25 26 28 29 28 30 32 33 32 28 23 22 24 23 22 27 32 28 27 32 36 33 29 29 31 32 34 35 32 28 21 16 20 22 20 20 25 24 24 24 20 16 21 25 24 20 20 23 23 20 20 18 18 23 22
27 28 28 26 27 26 24 24 25 25 23 22 24 31 38 34 23 21 20 19 22 23 18 16 18 21 22 23 24 24 25 23 21 24 27 28 29 29 28 29 32 34 32 27 21 20 23 22 21 27 30 29 30 32 35 34 30 27 32 39 39 33 32 27 21 24 25 17 17 25 26 25 26 23 19 18 20 23 22 22 24 24 22 20 19 19 21 21
28 27 26 26 27 26 24 24 24 26 24 24 30 37 38 32 27 24 19 16 18 21 22 22 22 23 23 23 24 26 26 24 22 23 25 26 28 29 29 27 29 34 34 29 24 19 19 19 19 25 30 30 28 27 32 37 34 29 30 36 36 32 32 30 21 20 19 13 16 26 30 26 23 22 23 24 23 23 23 24 25 24 23 22 21 22 21 20
28 27 25 27 28 25 23 24 25 27 25 26 37 41 34 29 28 27 25 21 17 18 23 26 23 22 24 24 23 25 27 26 25 24 23 24 25 27 29 28 27 31 33 31 27 21 17 18 18 23 27 27 26 25 28 35 39 36 29 27 31 30 31 33 24 15 15 12 12 23 30 28 25 23 23 26 28 27 26 27 27 25 24 22 22 22 21 20
29 26 22 25 28 22 20 22 23 26 27 30 38 39 34 32 29 27 27 26 22 20 24 26 23 22 24 25 24 24 27 28 27 26 24 22 22 23 28 29 27 28 31 32 30 23 18 17 17 19 23 23 26 29 30 32 38 41 35 29 31 32 32 34 29 21 18 13 11 18 23 23 26 27 25 24 27 28 28 30 29 26 25 23 22 22 20 17
28 25 19 24 30 24 21 21 23 27 30 34 37 32 29 30 30 30 29 27 27 25 25 25 24 24 24 24 25 25 26 28 28 28 25 24 21 19 23 27 26 27 29 31 32 27 20 18 17 18 22 25 28 33 34 32 34 40 42 37 32 31 31 31 31 33 27 15 10 12 15 20 27 27 23 22 23 24 25 28 29 27 27 25 20 22 23 19
25 24 19 22 27 24 22 21 23 28 30 34 36 33 29 27 26 28 29 30 31 29 26 26 26 26 25 24 25 25 25 27 28 28 26 26 24 18 19 25 25 25 27 29 31 30 24 19 18 19 23 28 31 32 32 32 31 34 40 42 36 29 28 25 23 31 33 23 18 14 11 19 27 25 23 22 22 22 22 24 26 25 24 22 18 18 22 22
24 22 15 15 19 20 22 23 23 25 29 33 33 31 30 29 27 27 27 29 33 33 31 28 27 28 27 25 24 24 26 26 25 28 27 25 26 22 18 22 25 24 26 28 30 30 27 21 19 21 23 24 25 27 29 30 30 31 34 40 40 34 30 25 18 23 29 29 30 25 18 19 22 20 20 21 24 25 23 22 22 22 21 20 19 18 18 22
24 24 20 19 22 22 23 25 24 24 28 31 31 30 29 29 29 28 28 27 29 31 33 32 31 30 29 27 24 24 27 26 23 27 28 24 24 23 17 18 24 25 24 26 27 28 28 25 22 22 22 22 21 23 27 27 29 32 33 34 40 40 37 31 24 25 28 29 30 25 19 22 25 21 18 18 20 24 25 24 23 21 21 20 20 17 17 23
25 26 23 21 23 24 24 25 24 24 26 27 29 31 31 31 30 28 28 29 27 26 29 31 31 31 31 29 27 25 25 25 24 25 26 25 23 22 19 17 21 25 24 23 24 27 29 28 25 20 16 18 19 19 24 29 30 33 34 33 37 41 41 37 32 29 27 29 31 23 17 23 28 26 25 20 17 22 25 26 26 25 23 22 20 17 18 23
25 23 19 15 19 22 23 24 23 24 25 26 28 29 29 31 33 32 28 28 28 27 28 29 28 28 30 30 30 29 27 25 23 23 25 26 23 22 22 19 20 23 23 23 23 24 27 29 28 23 15 14 16 17 22 29 30 30 32 34 35 37 39 39 37 33 27 26 33 30 24 25 25 25 28 24 17 19 22 22 24 25 25 25 22 18 18 23
22 19 14 12 16 21 22 22 22 24 23 23 26 27 27 26 27 29 30 30 29 29 29 29 27 27 29 31 32 32 32 30 26 22 24 26 24 23 23 21 21 21 23 26 25 20 22 27 31 31 25 21 20 20 21 24 27 28 30 33 34 34 35 38 39 38 32 27 32 35 30 28 27 27 30 30 25 21 20 20 20 21 23 26 26 23 22 25
20 20 15 14 16 20 22 21 21 23 23 19 19 21 23 24 21 21 26 30 31 30 30 29 28 28 29 31 32 32 32 32 31 29 26 25 24 23 24 25 25 24 25 28 24 18 19 25 29 32 32 29 26 23 21 23 26 27 27 30 33 33 34 37 38 38 36 29 29 33 32 32 34 33 30 31 31 29 27 26 25 24 22 22 24 25 26 27
18 19 15 16 18 18 20 22 22 25 25 22 20 19 17 17 19 20 20 22 26 29 30 29 29 30 28 27 29 31 30 30 32 33 30 27 25 23 24 27 28 27 28 27 24 21 20 22 25 28 30 31 31 28 25 25 27 27 27 28 30 32 34 37 38 37 37 33 30 30 31 32 36 37 35 31 29 30 30 29 28 26 24 23 23 24 26 27
17 19 18 18 20 20 20 22 25 27 26 22 22 23 19 15 17 18 18 18 20 24 28 30 29 29 29 28 28 28 29 30 31 32 31 30 28 25 24 26 28 28 28 27 26 24 23 24 23 24 27 28 31 32 30 29 29 29 30 31 31 32 34 37 37 37 38 39 35 31 31 32 32 34 38 38 33 28 26 25 27 28 27 26 25 24 25 25
17 18 19 19 20 20 19 20 23 26 25 21 20 22 22 19 17 18 20 20 19 17 21 24 24 24 26 29 31 29 27 27 27 27 29 29 30 29 26 23 25 28 29 29 28 27 27 27 24 25 28 27 28 31 32 33 33 32 32 33 33 32 33 36 38 38 38 38 37 36 36 34 31 29 32 38 40 35 28 24 25 27 28 27 26 25 25 24
20 19 19 21 23 22 20 18 18 21 23 23 22 20 20 20 18 20 25 26 21 16 15 17 18 20 19 22 30 31 26 23 24 23 25 28 30 30 30 25 22 25 29 30 29 29 29 27 24 24 27 28 27 28 30 33 35 36 37 36 35 34 34 35 36 36 36 36 35 37 39 37 32 28 27 31 37 41 39 34 28 25 25 25 25 25 26 26
20 19 17 20 23 23 22 20 18 20 22 23 21 20 20 19 18 20 24 28 28 21 16 17 17 18 13 10 17 22 20 20 24 23 20 22 24 24 27 29 25 23 27 30 31 31 29 27 25 24 25 28 27 26 29 29 27 32 40 41 37 36 36 36 35 35 36 36 35 36 38 35 32 31 31 30 32 37 41 43 41 37 34 31 30 29 29 28
Wind_Direction
285 286 287 287 288 288 290 293 294 293 292 289 285 282 278 275 274 273 274 275 277 280 284 290 291 291 291 292 285 270 261 257 253 251 248 243 243 247 248 246 246 246 247 246 246 249 252 257 262 266 273 277 286 289 254 253 247 253 278 272 261 271 76 95 94 90 117 132 133 137 140 133 139 142 142 133 138 155 146 151 165 154 140 161 188 190 178 179
282 282 283 285 286 286 287 288 290 292 292 291 289 287 284 281 278 276 276 276 277 279 282 286 291 294 292 294 291 279 265 256 253 252 251 246 243 244 245 242 242 241 241 242 242 245 249 253 256 259 265 264 269 274 249 243 235 234 250 266 263 262 75 85 95 90 126 137 138 142 143 140 145 148 132 129 146 154 149 160 160 150 153 173 187 173 177 185
280 279 279 281 282 284 284 285 286 288 289 291 292 290 289 286 283 282 280 280 279 280 281 283 288 292 295 294 294 292 274 260 260 256 249 246 245 243 241 238 237 237 235 237 239 239 242 248 250 253 255 249 246 245 243 235 229 227 236 266 274 94 79 91 96 98 125 132 145 148 143 146 148 148 138 142 155 151 158 167 158 163 172 180 184 170 176 184
278 277 277 277 278 280 281 282 282 284 285 287 290 291 292 291 289 286 284 284 284 284 284 284 285 289 294 292 296 300 284 270 262 252 247 244 245 244 240 235 231 231 230 230 233 234 233 238 245 247 241 239 238 232 235 229 231 231 231 259 296 90 122 109 105 113 125 140 151 150 149 151 152 152 146 152 159 156 172 174 165 179 187 182 183 175 174 181
277 276 275 275 275 276 277 278 280 281 282 283 285 288 291 293 293 293 290 288 287 287 288 287 286 285 289 290 291 297 294 293 254 252 253 245 241 242 239 234 227 225 224 224 226 229 228 227 235 241 232 231 236 233 235 232 237 248 241 262 316 99 116 92 122 136 133 160 156 155 157 152 154 157 153 161 166 164 177 175 173 189 190 184 187 179 175 181
277 276 275 275 273 274 274 274 276 277 279 280 281 283 286 290 292 295 294 293 292 293 292 290 290 285 286 284 280 284 249 192 245 258 255 246 238 237 237 231 224 220 219 220 219 222 225 220 223 233 231 230 234 234 238 235 236 248 248 257 264 240 249 69 143 158 154 168 166 165 162 156 157 162 162 166 158 148 171 171 175 187 183 181 186 180 177 178
277 276 276 276 274 273 272 272 273 274 276 277 279 280 282 284 287 291 293 294 295 296 296 294 293 289 285 282 273 269 246 217 252 263 247 238 235 231 233 230 223 219 217 218 216 217 220 218 219 226 230 230 235 236 240 240 237 244 250 249 244 237 233 238 198 177 181 178 176 171 169 167 164 169 168 170 159 142 160 167 175 186 180 178 179 180 178 174
275 275 275 275 274 274 273 272 272 272 273 274 276 277 278 281 283 286 287 290 294 296 297 294 294 292 287 285 273 262 260 249 261 261 246 230 230 228 228 228 226 221 218 218 216 215 218 219 219 222 227 230 234 236 239 244 239 239 247 249 240 232 225 233 234 208 201 190 183 175 177 178 168 173 170 173 174 153 156 168 179 189 182 176 174 176 176 172
275 274 273 272 273 274 273 273 272 272 272 272 273 274 275 277 279 282 283 286 290 291 293 292 293 293 289 286 279 269 268 257 251 256 250 235 229 228 226 225 227 224 220 220 217 215 215 218 220 220 225 231 236 237 238 242 239 233 238 242 236 233 229 235 240 220 210 199 189 181 182 183 174 174 172 174 179 163 160 171 180 186 182 175 172 175 174 175
275 274 273 272 271 272 273 273 273 273 273 272 272 272 273 273 276 277 279 282 285 287 288 290 289 289 289 283 277 271 263 257 252 252 249 242 234 230 227 223 225 224 222 221 218 216 215 216 219 222 228 234 237 240 238 237 240 236 234 241 235 234 234 233 238 226 216 206 195 190 189 187 183 183 178 178 182 168 164 174 179 178 179 177 177 178 176 180
277 275 273 273 271 271 271 271 273 273 273 273 272 272 271 271 272 272 275 278 280 283 282 285 286 285 286 280 274 265 253 251 255 248 242 242 238 233 230 225 223 223 223 222 220 218 216 215 215 222 230 234 236 241 242 236 242 245 243 250 238 232 237 235 237 229 215 207 196 193 196 189 187 195 186 181 184 173 170 176 178 177 179 182 184 182 180 184
277 277 275 274 272 271 270 270 271 272 272 273 272 273 272 270 270 270 272 274 276 279 279 282 282 282 282 276 274 263 252 248 249 250 244 239 238 235 233 229 224 223 223 222 222 220 217 214 212 219 224 230 233 237 244 236 236 243 241 246 240 230 235 235 231 225 213 205 196 192 199 194 194 203 189 186 188 174 175 180 178 182 183 184 189 187 185 187
278 278 276 275 274 272 271 270 270 270 271 272 272 273 272 271 270 269 270 271 272 274 276 278 278 281 279 276 282 272 261 256 247 248 246 238 235 235 233 230 226 224 224 221 219 222 222 214 212 218 221 226 229 230 245 239 229 235 235 238 241 232 230 230 222 215 208 201 195 193 201 201 202 205 188 189 191 176 179 184 181 184 188 189 191 193 192 191
283 280 278 276 275 273 272 271 270 270 270 271 271 272 272 272 270 269 269 269 270 270 272 275 276 279 277 276 284 274 265 263 251 246 244 237 232 233 233 231 228 226 226 223 216 218 221 216 213 219 222 224 226 231 243 238 223 226 231 233 237 234 227 218 209 204 201 199 193 194 208 210 202 199 190 191 191 180 182 186 186 186 190 195 196 198 198 196
286 285 283 281 278 276 274 272 271 270 269 270 270 271 271 271 271 270 268 268 269 269 269 271 273 278 280 282 281 271 266 263 253 242 239 232 226 230 233 230 228 226 226 226 221 217 215 212 213 216 219 220 223 233 238 231 222 222 227 228 227 232 229 203 198 199 196 195 191 197 215 212 188 189 189 192 190 184 186 187 189 189 191 199 201 201 204 202
289 287 286 285 283 281 278 275 273 271 270 270 269 270 270 270 271 269 269 268 267 267 268 269 270 274 280 285 284 281 275 265 250 238 234 228 220 223 232 230 226 226 225 225 221 216 212 209 212 214 214 217 220 227 231 227 223 219 224 228 220 223 221 190 190 199 197 196 193 201 218 212 178 182 186 191 190 185 189 190 191 193 194 200 204 204 208 210
290 289 288 286 286 285 283 281 278 275 273 271 270 271 270 270 270 269 269 267 265 265 264 265 267 271 276 276 279 290 283 268 250 235 232 227 216 210 225 229 225 225 225 223 222 219 218 214 212 214 214 217 217 217 224 224 218 214 218 226 223 220 216 194 191 202 202 199 197 203 216 220 185 178 184 188 190 188 190 193 194 197 198 201 206 206 210 215
290 289 287 286 286 285 285 285 283 281 277 275 274 271 272 272 270 269 269 267 265 262 262 267 266 268 282 276 267 270 257 253 246 231 233 230 219 211 219 223 222 223 219 220 223 220 219 216 212 213 214 215 213 212 218 220 216 214 213 218 222 223 221 211 203 204 204 201 201 206 213 218 188 175 185 188 190 193 193 196 197 199 201 204 209 209 211 219
290 288 286 286 285 284 285 285 285 284 283 281 279 277 276 273 272 274 270 264 262 261 263 270 258 245 259 287 261 227 223 242 257 242 234 232 225 214 211 208 210 217 209 210 220 215 210 210 209 212 213 213 212 212 216 220 220 221 219 216 219 224 226 220 210 200 200 204 206 207 210 213 198 181 190 193 193 197 197 198 199 201 205 207 211 212 213 222
292 290 288 286 284 283 283 283 284 285 285 285 283 283 280 276 279 279 271 265 262 258 251 252 253 242 231 250 261 246 248 263 272 253 228 231 228 209 203 201 200 208 203 202 214 211 204 208 211 213 213 211 212 214 217 221 224 228 227 221 219 226 229 223 215 200 197 208 210 210 211 213 210 198 196 199 198 200 201 201 201 202 206 209 213 214 216 224
291 291 290 288 286 283 281 281 282 283 285 286 286 284 280 279 280 273 272 273 267 260 251 243 250 251 237 232 239 243 251 262 266 251 229 230 225 204 203 201 196 205 206 201 207 204 203 213 216 214 214 213 214 216 218 222 226 231 232 226 220 225 230 224 219 204 194 205 212 212 215 214 214 208 203 203 203 203 204 204 204 204 206 210 214 216 218 223
290 290 289 289 288 284 283 282 280 280 282 283 285 284 281 280 279 275 276 277 268 258 258 248 243 249 244 234 232 234 241 247 251 247 232 224 215 206 206 204 202 206 206 202 202 200 206 217 218 214 216 216 217 218 219 223 226 230 233 232 224 221 227 227 218 202 192 200 213 215 218 218 215 212 209 207 208 209 208 207 207 206 207 210 215 218 219 223
290 288 287 287 286 285 283 281 280 280 280 280 281 283 283 281 280 281 281 281 274 255 255 255 247 247 245 239 238 236 239 242 244 242 233 223 215 207 205 207 208 209 208 205 203 203 210 218 216 213 216 217 218 219 219 223 225 228 230 232 231 222 222 225 212 192 188 197 212 218 221 223 220 216 214 212 212 212 211 211 212 212 214 213 214 219 222 226
289 287 285 283 284 284 282 280 280 279 278 279 279 280 282 282 282 284 284 285 284 270 255 253 247 246 241 234 235 237 238 241 241 237 231 227 217 207 207 209 211 212 212 209 209 213 218 219 214 211 215 216 217 218 217 220 223 226 227 228 231 223 219 223 205 187 200 213 219 223 225 225 223 218 215 214 214 214 215 215 215 217 219 218 215 219 226 229
288 286 284 282 280 282 282 279 277 277 276 275 276 277 279 283 286 287 290 292 290 284 271 251 239 240 236 228 229 235 238 238 238 231 226 230 220 205 209 211 214 216 214 212 214 221 224 218 212 211 213 215 216 218 217 217 221 225 225 225 229 227 221 225 212 196 212 226 221 220 227 228 223 221 219 216 215 216 216 216 218 218 219 222 221 220 224 227
286 284 283 281 278 277 280 279 275 274 275 272 273 274 276 282 285 288 296 296 287 280 268 247 233 235 235 231 227 229 240 243 240 227 217 229 221 201 208 212 214 219 217 216 218 223 224 217 214 213 212 214 215 218 218 217 222 225 223 222 226 232 230 229 226 214 216 224 218 216 227 236 225 221 221 220 220 218 217 217 220 221 220 224 229 229 228 228
286 284 282 281 277 273 274 277 275 271 270 269 270 272 274 278 281 291 302 290 275 261 243 231 225 228 225 225 222 216 229 238 235 222 209 222 219 200 209 215 213 220 216 215 220 221 221 216 215 213 210 213 215 218 217 215 222 226 222 220 223 231 234 235 236 230 223 225 221 218 227 238 235 226 222 222 223 219 218 220 219 221 224 228 233 236 237 235
286 284 281 279 277 273 270 271 272 267 266 266 267 269 268 268 271 279 290 278 247 189 222 227 226 227 214 213 213 205 209 206 214 224 209 216 217 199 210 217 213 221 214 214 223 220 217 216 213 209 210 215 215 215 214 212 221 225 223 224 224 227 232 237 240 237 230 228 226 222 224 234 239 231 224 222 223 220 219 219 218 220 223 228 234 235 238 242
286 284 282 277 274 273 270 269 270 265 262 261 262 261 258 258 256 251 256 256 229 213 233 227 221 223 210 205 200 193 206 207 206 226 204 209 212 197 211 220 215 224 219 218 227 223 220 218 213 212 213 216 216 213 213 214 221 225 226 231 232 228 226 232 239 241 237 234 232 227 222 230 241 231 223 221 221 221 219 218 218 220 222 227 233 233 233 240
285 283 282 277 271 269 268 268 270 267 260 255 254 250 245 241 226 230 238 231 237 240 228 219 217 213 200 197 195 195 206 207 198 203 193 202 208 198 210 222 219 227 225 223 229 227 225 218 214 217 215 214 215 215 217 219 222 225 227 232 237 238 230 230 236 238 238 233 231 230 225 227 239 232 224 221 221 220 218 217 216 219 226 228 229 230 229 232
285 282 281 278 272 267 265 265 265 265 260 250 246 241 235 228 217 227 233 225 244 231 207 216 216 199 194 194 198 202 205 206 203 200 191 195 203 201 208 217 216 223 225 224 226 225 225 219 213 218 218 214 215 219 220 219 220 222 224 227 230 236 235 232 232 232 237 237 231 231 227 227 233 231 223 221 223 222 217 217 216 217 227 233 232 233 230 228
284 281 280 278 273 266 263 262 259 259 257 247 239 229 221 223 224 227 226 228 244 213 198 210 202 193 198 199 204 205 202 206 205 201 196 195 199 202 205 207 206 210 218 219 219 219 223 224 217 216 218 214 213 217 217 214 215 216 219 221 221 223 226 226 227 225 229 237 236 231 228 231 234 232 229 225 225 224 218 217 218 216 221 232 240 243 241 230
283 280 278 276 273 266 259 259 257 254 251 241 230 219 211 226 231 223 219 220 217 196 200 211 201 197 201 204 211 206 200 206 204 201 202 201 204 206 208 210 207 209 216 216 213 214 219 223 220 215 216 214 211 213 211 208 210 212 213 215 215 217 219 216 220 227 227 230 234 233 235 239 236 233 233 229 225 225 220 214 216 219 219 226 239 249 253 243
282 280 277 273 272 267 257 255 255 252 247 233 221 212 212 229 234 222 220 223 224 230 228 213 205 204 205 208 212 205 202 207 204 202 204 204 208 210 209 213 212 213 221 220 215 215 215 218 216 213 213 211 210 212 212 208 209 212 212 213 216 216 220 221 214 222 231 232 231 230 230 235 235 235 231 225 223 223 220 213 212 220 220 218 231 248 254 249
281 280 279 275 271 266 256 250 250 249 245 228 214 212 218 227 230 224 226 226 228 238 241 223 210 209 211 213 216 212 210 214 209 205 208 207 210 211 210 212 213 212 217 222 218 216 222 226 219 213 212 211 210 211 211 211 212 211 210 216 220 217 222 235 232 226 231 236 234 230 230 230 233 238 227 216 219 220 219 214 213 219 222 220 228 242 252 253
283 281 281 279 273 267 257 249 246 246 242 224 214 220 225 226 225 224 229 229 230 234 235 226 215 215 217 215 218 218 214 217 213 207 212 214 214 215 213 212 212 209 211 217 217 214 222 230 222 212 211 212 212 210 209 212 214 208 209 218 222 219 224 235 241 234 233 238 232 232 236 231 227 233 227 214 214 215 216 217 219 224 226 225 225 227 241 249
285 280 280 280 274 269 261 250 244 243 237 222 221 228 230 230 229 228 230 234 235 234 234 230 221 218 220 217 216 213 210 213 213 209 214 217 217 218 216 213 212 210 210 215 221 221 225 233 221 210 212 212 211 213 212 214 216 211 212 218 219 221 226 231 238 235 232 239 231 231 238 232 222 224 224 220 215 213 216 218 222 227 227 226 225 227 240 245
288 281 282 279 270 268 265 254 245 242 236 225 229 233 234 234 233 231 233 237 239 236 236 235 227 220 221 222 220 211 207 209 210 212 216 217 218 217 214 214 212 210 210 214 223 226 226 235 227 210 212 210 203 209 214 215 218 220 221 217 212 215 221 224 229 232 230 236 231 232 237 234 226 222 222 224 219 214 216 217 220 226 225 223 221 227 241 237
292 288 288 279 271 268 263 254 245 240 234 230 235 238 238 237 234 231 233 238 241 240 238 236 232 228 225 225 225 217 210 210 211 214 217 218 222 217 212 213 212 209 209 211 219 226 220 227 232 212 203 202 199 206 213 212 213 220 226 223 215 217 220 220 223 228 234 237 231 232 236 235 232 225 220 223 219 215 219 221 221 223 225 224 220 223 233 234
296 293 286 276 274 272 266 256 243 236 233 233 238 241 243 243 239 234 233 236 239 239 237 235 234 234 231 227 228 226 219 217 216 216 217 217 219 214 207 208 209 207 206 206 214 224 219 216 228 214 194 198 207 207 210 212 207 210 219 222 218 217 220 222 222 223 229 240 239 232 233 234 234 228 220 218 217 217 222 222 218 218 224 227 221 220 226 236
293 292 287 278 276 272 267 260 245 238 238 239 242 244 244 245 246 242 237 236 238 238 236 236 236 237 236 231 229 229 228 227 222 217 218 217 213 209 203 206 209 205 202 205 210 217 218 212 220 216 196 201 214 213 211 215 212 209 213 218 220 217 214 219 222 220 222 232 239 242 242 231 229 229 225 219 218 221 221 218 212 212 219 221 222 224 223 231
286 282 273 264 269 270 267 262 252 244 243 243 244 246 246 246 247 245 241 237 237 237 237 238 239 238 238 235 230 228 230 233 226 218 221 221 214 211 208 206 209 206 201 206 210 212 217 217 219 221 214 211 217 218 216 218 220 219 216 216 220 221 218 220 222 218 220 226 232 240 248 234 223 224 223 218 219 221 217 210 206 207 211 218 231 231 220 231
280 272 257 248 258 266 264 262 255 247 246 248 248 248 249 247 246 244 241 238 236 234 234 235 237 238 237 237 235 231 229 233 230 221 222 225 215 210 210 203 205 208 205 207 209 207 212 221 221 222 229 228 221 218 220 218 219 223 222 216 218 221 222 224 225 222 224 226 226 232 239 233 230 232 230 221 217 218 215 209 207 211 215 224 236 231 225 236
279 275 271 262 259 256 250 250 253 251 249 251 251 249 247 245 244 243 239 236 234 232 233 233 234 236 235 234 234 232 228 230 230 223 221 223 217 210 209 202 200 204 206 207 207 203 206 215 219 219 226 226 217 212 213 211 211 219 221 217 218 220 220 224 228 228 230 228 226 231 235 231 231 232 235 233 220 215 216 215 217 222 225 229 234 235 236 233
286 284 282 274 264 258 248 241 248 257 257 255 253 248 247 247 243 239 238 238 235 233 236 237 234 234 233 232 233 231 228 229 229 226 224 223 221 213 207 203 198 201 208 209 206 205 208 210 213 217 219 212 209 208 207 206 207 214 220 220 220 220 218 221 226 229 231 228 229 236 238 232 228 223 226 230 219 209 212 215 221 225 227 229 231 236 238 230
290 283 276 269 260 256 253 245 245 253 259 264 262 253 251 254 247 238 238 239 239 237 239 239 236 235 232 228 230 230 228 229 230 229 226 223 221 215 208 208 205 202 210 213 207 210 220 216 212 218 223 221 217 216 211 209 211 213 218 222 223 221 218 220 225 229 231 230 232 237 239 239 238 229 224 224 219 215 215 217 225 230 230 228 228 234 237 234
283 276 268 264 255 244 245 249 248 248 246 252 260 256 253 253 248 244 241 239 240 239 238 238 235 233 230 226 227 229 226 227 229 229 229 226 224 221 216 216 215 212 215 216 213 214 224 225 218 217 223 228 230 229 220 219 223 220 216 219 222 223 221 221 225 228 230 231 234 235 233 238 242 240 234 228 223 223 226 231 237 239 233 223 222 232 238 237
276 272 260 259 263 253 246 248 249 247 242 239 242 243 246 252 251 252 252 244 239 234 233 237 234 231 231 226 225 227 225 223 225 226 227 227 226 225 222 218 217 218 216 216 217 217 221 227 221 216 222 229 235 240 233 228 231 230 225 225 224 224 226 227 228 229 230 233 237 235 231 233 236 237 239 238 231 225 229 236 238 232 227 222 222 233 241 244
268 265 257 254 261 260 255 255 250 243 238 239 242 236 238 256 261 258 262 263 256 239 229 231 233 232 233 230 227 227 223 221 223 223 224 227 226 224 223 216 211 212 212 212 215 215 219 226 223 223 230 231 232 239 238 235 235 232 230 232 229 226 228 230 232 232 232 235 239 238 237 236 234 233 235 238 239 233 229 231 231 226 225 227 227 232 240 247
266 263 261 259 259 257 261 265 261 251 243 243 247 243 243 255 264 264 264 265 266 250 234 236 238 232 232 232 230 229 224 222 225 224 221 223 223 220 220 216 208 206 208 210 212 212 218 226 225 228 239 239 232 234 236 236 238 237 233 233 232 231 230 230 232 233 234 236 238 239 240 240 236 233 231 232 237 241 237 229 226 225 226 228 230 232 235 240
266 263 261 263 263 263 265 267 265 261 255 248 246 247 251 254 257 259 253 244 240 248 265 274 257 232 225 227 226 227 229 230 230 228 226 224 221 219 219 218 212 206 205 208 211 211 214 222 225 226 236 240 235 234 236 235 237 240 239 235 233 232 232 231 231 231 233 235 236 238 241 240 235 234 232 230 232 238 241 236 230 227 224 226 230 234 237 238
266 262 261 264 266 265 263 261 259 257 253 249 244 244 249 249 248 255 253 236 226 237 274 288 264 238 228 230 231 228 226 228 225 222 224 223 219 219 220 218 217 216 211 207 210 212 212 216 219 220 230 236 234 234 238 237 236 237 236 234 235 235 234 234 233 231 232 233 234 236 239 241 238 236 235 233 230 233 237 236 236 236 234 235 238 239 242 239
Height
3172 3171 3170 3169 3169 3168 3167 3166 3165 3164 3163 3163 3162 3162 3161 3161 3161 3160 3160 3160 3159 3159 3159 3158 3157 3157 3156 3155 3154 3153 3154 3154 3154 3155 3156 3158 3158 3159 3161 3163 3164 3166 3167 3169 3171 3172 3173 3175 3175 3176 3176 3177 3177 3178 3179 3179 3180 3180 3179 3178 3175 3174 3173 3173 3175 3176 3177 3177 3178 3179 3180 3180 3180 3180 3180 3180 3182 3182 3182 3183 3184 3185 3186 3187 3185 3185 3186 3188
3170 3169 3169 3168 3167 3167 3166 3165 3164 3163 3162 3161 3161 3160 3160 3160 3159 3159 3158 3158 3157 3157 3157 3156 3155 3155 3155 3154 3153 3152 3152 3152 3153 3154 3154 3155 3156 3157 3159 3161 3162 3164 3166 3168 3169 3171 3172 3173 3174 3176 3176 3177 3178 3178 3179 3179 3179 3179 3179 3177 3174 3174 3174 3174 3176 3176 3176 3177 3179 3179 3180 3180 3180 3181 3180 3181 3183 3182 3183 3183 3183 3185 3186 3185 3184 3185 3187 3188
3168 3168 3167 3167 3166 3165 3164 3164 3163 3162 3161 3160 3159 3159 3158 3158 3158 3157 3157 3156 3156 3155 3155 3155 3154 3153 3153 3153 3151 3151 3151 3151 3152 3151 3151 3153 3154 3155 3157 3159 3160 3162 3164 3166 3168 3170 3171 3172 3173 3175 3176 3177 3179 3179 3180 3179 3179 3179 3179 3176 3174 3175 3175 3175 3176 3177 3177 3177 3179 3179 3180 3180 3180 3181 3181 3183 3184 3183 3184 3183 3184 3185 3184 3184 3184 3185 3187 3188
3167 3166 3166 3165 3164 3164 3163 3162 3161 3161 3160 3159 3158 3158 3157 3156 3156 3156 3155 3155 3154 3154 3153 3153 3153 3152 3151 3151 3151 3150 3149 3151 3150 3148 3149 3151 3152 3153 3155 3157 3158 3160 3162 3164 3166 3168 3170 3171 3172 3174 3175 3177 3179 3179 3180 3179 3178 3178 3178 3175 3173 3175 3175 3175 3177 3177 3178 3178 3179 3179 3180 3180 3180 3181 3181 3183 3184 3184 3185 3184 3184 3184 3183 3184 3184 3185 3187 3188
3165 3165 3164 3163 3163 3162 3161 3161 3160 3159 3159 3158 3157 3157 3156 3155 3155 3154 3154 3153 3153 3152 3152 3151 3151 3150 3150 3150 3150 3149 3149 3151 3148 3146 3148 3150 3150 3151 3153 3155 3157 3158 3161 3162 3164 3166 3168 3170 3172 3173 3174 3176 3178 3178 3178 3178 3178 3177 3176 3174 3173 3176 3175 3175 3177 3177 3178 3178 3179 3179 3180 3180 3181 3181 3182 3183 3184 3184 3185 3184 3184 3183 3183 3184 3184 3185 3187 3188
3163 3163 3162 3162 3161 3160 3159 3159 3158 3158 3157 3157 3156 3155 3155 3154 3154 3153 3152 3152 3151 3151 3150 3150 3149 3149 3149 3148 3148 3148 3149 3149 3146 3145 3147 3148 3148 3150 3151 3153 3155 3157 3159 3160 3162 3165 3167 3169 3171 3172 3173 3175 3177 3177 3177 3177 3178 3176 3175 3175 3175 3176 3176 3176 3177 3177 3177 3178 3179 3179 3180 3180 3181 3181 3182 3183 3184 3185 3185 3184 3184 3183 3183 3184 3184 3186 3187 3188
3161 3161 3160 3160 3159 3158 3158 3157 3156 3156 3156 3155 3155 3154 3154 3153 3153 3152 3151 3151 3150 3150 3149 3148 3148 3147 3147 3147 3147 3147 3147 3147 3146 3144 3145 3146 3147 3148 3149 3151 3153 3155 3156 3158 3161 3163 3165 3167 3169 3171 3173 3174 3175 3176 3176 3176 3176 3175 3175 3175 3176 3176 3176 3176 3177 3177 3177 3178 3178 3179 3180 3180 3181 3181 3182 3183 3183 3184 3185 3184 3184 3183 3183 3184 3184 3186 3187 3188
3159 3159 3158 3158 3157 3156 3155 3155 3155 3154 3154 3153 3153 3153 3152 3152 3151 3151 3150 3149 3149 3149 3148 3147 3147 3146 3146 3146 3145 3145 3145 3147 3146 3142 3143 3145 3145 3146 3148 3149 3151 3153 3155 3157 3159 3161 3164 3166 3168 3170 3172 3174 3175 3175 3175 3175 3175 3175 3174 3175 3175 3175 3176 3176 3176 3177 3177 3178 3178 3179 3180 3180 3181 3181 3181 3183 3183 3183 3185 3184 3184 3183 3183 3184 3185 3186 3187 3188
3157 3157 3156 3155 3155 3154 3153 3153 3152 3152 3152 3152 3151 3151 3151 3150 3150 3149 3149 3148 3148 3147 3147 3146 3146 3145 3145 3144 3144 3144 3144 3145 3143 3140 3142 3144 3144 3145 3146 3148 3149 3151 3153 3155 3158 3160 3161 3163 3166 3169 3171 3173 3174 3174 3175 3174 3173 3173 3173 3174 3175 3175 3175 3176 3176 3176 3177 3177 3178 3178 3179 3180 3180 3181 3181 3182 3182 3182 3184 3184 3183 3183 3183 3184 3185 3186 3187 3188
3154 3154 3153 3153 3152 3152 3151 3151 3150 3150 3150 3150 3150 3149 3149 3149 3148 3148 3147 3147 3146 3146 3145 3145 3144 3144 3143 3143 3143 3143 3143 3142 3141 3140 3141 3142 3143 3144 3145 3146 3148 3150 3152 3154 3156 3158 3160 3162 3165 3168 3170 3172 3173 3173 3173 3173 3171 3171 3172 3173 3174 3174 3175 3175 3175 3175 3176 3177 3177 3178 3179 3179 3180 3180 3180 3182 3181 3181 3183 3183 3183 3183 3183 3184 3185 3186 3187 3188
3152 3152 3151 3151 3150 3150 3149 3148 3148 3148 3148 3147 3147 3147 3147 3147 3147 3146 3146 3145 3145 3144 3144 3143 3143 3142 3142 3141 3141 3141 3141 3140 3140 3139 3139 3140 3142 3143 3144 3145 3147 3148 3150 3152 3154 3156 3159 3161 3165 3168 3169 3169 3171 3172 3172 3171 3171 3171 3172 3172 3172 3173 3173 3173 3174 3175 3175 3176 3176 3177 3178 3179 3179 3179 3180 3180 3180 3181 3183 3183 3183 3183 3184 3184 3185 3186 3186 3187
3150 3149 3149 3148 3148 3147 3147 3146 3146 3146 3145 3145 3145 3145 3145 3145 3145 3144 3144 3144 3143 3143 3142 3142 3141 3140 3140 3139 3139 3139 3138 3138 3139 3138 3138 3139 3140 3142 3143 3144 3146 3147 3149 3151 3153 3155 3157 3160 3163 3165 3167 3169 3170 3170 3170 3170 3171 3171 3172 3171 3171 3171 3172 3172 3173 3173 3174 3174 3175 3177 3177 3178 3178 3178 3179 3179 3178 3180 3182 3182 3183 3183 3183 3184 3185 3185 3186 3187
3148 3147 3147 3146 3146 3145 3145 3144 3144 3143 3143 3143 3143 3142 3142 3143 3142 3142 3142 3142 3142 3141 3140 3140 3139 3138 3138 3137 3137 3137 3136 3136 3137 3137 3137 3137 3138 3140 3141 3143 3144 3146 3147 3149 3152 3154 3156 3158 3160 3163 3166 3168 3168 3168 3168 3168 3169 3170 3170 3170 3169 3169 3169 3170 3171 3172 3173 3173 3174 3176 3176 3176 3177 3177 3179 3178 3177 3179 3181 3182 3182 3183 3183 3184 3184 3185 3185 3186
3145 3145 3144 3143 3143 3143 3142 3142 3141 3141 3141 3140 3140 3140 3140 3140 3140 3140 3140 3140 3140 3139 3139 3138 3137 3136 3135 3135 3135 3135 3134 3135 3135 3135 3135 3136 3137 3138 3139 3141 3143 3144 3146 3147 3150 3152 3154 3156 3159 3161 3163 3165 3166 3168 3167 3167 3168 3168 3169 3168 3167 3166 3166 3168 3169 3171 3172 3172 3173 3175 3175 3174 3174 3176 3177 3177 3177 3179 3180 3181 3182 3182 3183 3183 3184 3184 3185 3186
3142 3142 3141 3141 3140 3140 3140 3139 3139 3139 3138 3138 3138 3138 3137 3137 3137 3137 3137 3137 3137 3137 3137 3136 3136 3134 3132 3132 3133 3132 3133 3132 3132 3133 3133 3134 3135 3136 3138 3139 3141 3143 3144 3146 3148 3150 3152 3155 3157 3158 3160 3162 3165 3166 3166 3166 3166 3166 3166 3165 3165 3165 3164 3166 3168 3169 3170 3171 3172 3173 3173 3172 3172 3174 3176 3176 3177 3178 3179 3180 3181 3182 3183 3183 3183 3184 3185 3185
3140 3139 3139 3138 3137 3137 3137 3137 3136 3136 3136 3135 3135 3135 3135 3135 3135 3135 3135 3135 3135 3135 3135 3134 3134 3133 3131 3130 3130 3130 3130 3130 3130 3131 3131 3132 3134 3135 3136 3137 3139 3141 3142 3144 3146 3148 3150 3152 3154 3156 3159 3161 3162 3163 3164 3164 3162 3163 3163 3161 3162 3163 3163 3165 3166 3168 3169 3170 3171 3172 3171 3171 3171 3173 3175 3175 3176 3177 3178 3179 3180 3181 3182 3182 3183 3183 3184 3184
3138 3137 3137 3136 3135 3134 3134 3134 3134 3133 3133 3133 3132 3133 3132 3132 3132 3132 3132 3132 3132 3132 3132 3132 3132 3132 3131 3129 3128 3129 3128 3128 3129 3129 3129 3131 3132 3134 3135 3135 3138 3139 3141 3143 3144 3146 3147 3149 3151 3154 3157 3158 3159 3162 3161 3158 3157 3158 3159 3159 3159 3160 3161 3163 3165 3166 3168 3169 3170 3171 3171 3171 3171 3172 3174 3175 3175 3177 3178 3178 3179 3180 3181 3181 3182 3182 3183 3183
3135 3135 3134 3133 3133 3132 3131 3131 3131 3130 3131 3130 3130 3130 3130 3129 3129 3129 3129 3129 3129 3129 3129 3129 3130 3130 3129 3127 3127 3129 3128 3126 3127 3128 3128 3129 3130 3132 3133 3134 3136 3138 3140 3141 3142 3144 3146 3148 3150 3152 3153 3154 3155 3157 3155 3153 3153 3154 3155 3157 3158 3159 3159 3160 3162 3164 3166 3167 3168 3169 3170 3170 3170 3171 3173 3174 3175 3176 3177 3177 3178 3179 3179 3180 3180 3181 3182 3182
3133 3133 3132 3131 3130 3129 3129 3129 3128 3128 3128 3128 3127 3127 3128 3126 3126 3126 3125 3125 3126 3126 3128 3126 3125 3127 3128 3125 3126 3127 3126 3125 3126 3127 3127 3128 3129 3130 3132 3134 3135 3136 3138 3140 3140 3142 3144 3146 3148 3147 3147 3148 3150 3151 3151 3152 3153 3152 3153 3154 3156 3157 3157 3158 3160 3161 3164 3166 3167 3168 3169 3169 3170 3171 3172 3173 3174 3174 3175 3176 3177 3178 3178 3178 3178 3179 3180 3181
3131 3131 3130 3129 3128 3127 3126 3126 3126 3126 3126 3126 3125 3125 3125 3123 3124 3123 3120 3121 3122 3123 3124 3123 3121 3122 3124 3125 3126 3126 3123 3122 3124 3125 3126 3127 3127 3129 3131 3132 3134 3135 3137 3138 3138 3140 3142 3143 3142 3141 3142 3145 3147 3149 3151 3152 3152 3152 3151 3152 3154 3155 3155 3156 3158 3159 3161 3163 3164 3166 3167 3168 3169 3169 3170 3171 3172 3173 3174 3174 3175 3176 3176 3177 3177 3178 3178 3179
3129 3128 3127 3127 3126 3125 3124 3124 3123 3123 3123 3123 3123 3123 3122 3121 3122 3121 3117 3117 3119 3118 3119 3119 3118 3118 3120 3123 3124 3125 3123 3122 3122 3123 3125 3125 3126 3128 3129 3130 3133 3133 3134 3137 3138 3139 3140 3139 3137 3139 3142 3145 3147 3149 3151 3152 3151 3151 3149 3149 3151 3153 3154 3154 3155 3156 3159 3161 3162 3164 3165 3166 3167 3168 3169 3169 3170 3171 3172 3173 3173 3174 3175 3175 3176 3176 3177 3177
3126 3125 3125 3124 3124 3123 3122 3122 3121 3121 3121 3121 3121 3121 3121 3120 3119 3118 3116 3113 3113 3115 3113 3114 3115 3114 3116 3118 3120 3121 3121 3120 3120 3121 3122 3123 3124 3126 3127 3128 3130 3131 3132 3135 3136 3136 3136 3134 3135 3139 3142 3145 3146 3148 3149 3150 3150 3149 3148 3146 3147 3150 3152 3151 3151 3153 3156 3158 3160 3162 3163 3163 3165 3166 3167 3167 3168 3169 3170 3171 3171 3172 3173 3173 3174 3174 3175 3175
3124 3123 3122 3121 3121 3120 3119 3119 3119 3119 3119 3118 3119 3118 3118 3118 3117 3116 3114 3110 3108 3111 3109 3109 3111 3111 3112 3115 3116 3116 3116 3116 3117 3119 3120 3120 3122 3124 3125 3126 3127 3130 3131 3131 3132 3132 3130 3130 3134 3139 3141 3143 3144 3145 3147 3148 3148 3147 3146 3145 3144 3147 3149 3147 3148 3152 3154 3157 3159 3161 3161 3162 3163 3163 3164 3165 3166 3167 3168 3169 3170 3170 3170 3171 3172 3172 3173 3173
3121 3120 3120 3119 3119 3118 3116 3117 3117 3117 3117 3116 3116 3116 3115 3116 3115 3114 3113 3108 3104 3105 3106 3106 3106 3107 3109 3111 3111 3111 3112 3114 3114 3117 3117 3117 3119 3122 3123 3125 3126 3127 3128 3128 3129 3128 3128 3130 3133 3137 3138 3140 3141 3142 3144 3144 3144 3144 3144 3144 3143 3144 3145 3146 3148 3151 3154 3156 3158 3159 3160 3159 3159 3160 3161 3162 3164 3164 3165 3166 3167 3168 3168 3169 3170 3171 3170 3171
3118 3117 3117 3117 3116 3115 3114 3114 3114 3114 3115 3114 3114 3114 3114 3114 3114 3113 3111 3108 3103 3101 3102 3102 3102 3103 3104 3105 3107 3108 3110 3110 3110 3114 3115 3113 3116 3120 3121 3123 3123 3124 3125 3126 3127 3126 3127 3129 3131 3133 3135 3137 3138 3139 3140 3141 3142 3141 3141 3142 3143 3142 3142 3144 3145 3148 3152 3153 3154 3157 3157 3155 3156 3157 3158 3159 3161 3161 3162 3163 3164 3165 3166 3167 3167 3168 3168 3168
3114 3114 3114 3114 3113 3113 3112 3111 3112 3112 3112 3112 3112 3112 3112 3112 3113 3112 3110 3108 3103 3098 3098 3099 3100 3099 3099 3101 3104 3107 3108 3106 3106 3110 3112 3111 3114 3118 3119 3120 3120 3120 3123 3124 3125 3124 3124 3127 3129 3130 3132 3134 3135 3135 3137 3139 3139 3137 3138 3141 3142 3142 3142 3142 3142 3144 3147 3149 3151 3154 3153 3151 3152 3153 3155 3157 3158 3158 3159 3160 3161 3163 3164 3164 3164 3165 3165 3166
3110 3110 3110 3111 3110 3110 3110 3109 3109 3109 3109 3110 3110 3110 3111 3111 3112 3111 3111 3108 3100 3095 3094 3096 3097 3096 3097 3098 3100 3105 3105 3102 3103 3106 3108 3108 3110 3114 3116 3117 3118 3118 3120 3123 3120 3119 3120 3124 3125 3126 3129 3130 3131 3131 3133 3136 3136 3134 3136 3140 3141 3142 3141 3141 3140 3140 3143 3146 3149 3151 3151 3149 3149 3150 3152 3154 3154 3155 3156 3157 3158 3160 3161 3161 3162 3163 3163 3163
3107 3106 3106 3108 3106 3105 3107 3107 3106 3107 3107 3107 3108 3109 3109 3110 3111 3111 3112 3108 3096 3091 3091 3091 3092 3093 3094 3095 3096 3101 3101 3100 3101 3102 3104 3106 3107 3111 3113 3114 3116 3116 3118 3118 3115 3115 3118 3119 3121 3123 3125 3125 3125 3127 3131 3134 3133 3133 3136 3138 3138 3140 3141 3141 3139 3137 3140 3143 3144 3147 3149 3147 3145 3147 3149 3150 3150 3151 3152 3153 3155 3156 3158 3159 3160 3161 3161 3161
3103 3102 3102 3104 3103 3102 3103 3103 3103 3104 3104 3105 3106 3106 3107 3109 3109 3110 3112 3105 3092 3089 3089 3088 3090 3090 3091 3093 3094 3097 3098 3099 3101 3100 3102 3104 3104 3109 3110 3111 3114 3115 3115 3115 3113 3115 3116 3116 3119 3121 3121 3121 3123 3126 3130 3132 3131 3134 3136 3137 3136 3136 3137 3139 3136 3135 3138 3138 3138 3143 3146 3144 3142 3143 3145 3146 3146 3146 3148 3150 3152 3153 3155 3156 3157 3159 3160 3159
3099 3098 3097 3099 3100 3099 3099 3100 3100 3101 3102 3103 3103 3104 3105 3106 3107 3109 3107 3098 3089 3087 3086 3085 3088 3088 3088 3090 3092 3094 3095 3098 3099 3098 3100 3102 3102 3105 3108 3110 3112 3112 3113 3112 3112 3113 3113 3115 3117 3117 3117 3119 3123 3125 3127 3129 3131 3134 3136 3135 3134 3132 3133 3135 3135 3136 3134 3130 3132 3138 3140 3141 3138 3138 3140 3141 3141 3143 3145 3148 3149 3150 3151 3151 3152 3155 3157 3158
3095 3094 3093 3094 3096 3096 3096 3096 3096 3098 3099 3099 3101 3103 3103 3104 3106 3104 3096 3090 3088 3085 3082 3083 3087 3087 3087 3089 3090 3091 3093 3096 3097 3096 3097 3100 3101 3103 3105 3107 3108 3109 3109 3108 3108 3111 3112 3111 3112 3113 3115 3118 3121 3123 3124 3127 3130 3132 3133 3133 3133 3132 3132 3132 3132 3133 3128 3123 3127 3132 3135 3136 3132 3131 3135 3136 3138 3140 3142 3144 3146 3147 3148 3148 3149 3150 3152 3155
3091 3090 3090 3090 3091 3092 3093 3092 3093 3095 3095 3097 3100 3100 3101 3103 3100 3093 3089 3088 3086 3081 3079 3082 3083 3084 3086 3087 3088 3089 3090 3092 3093 3094 3095 3096 3097 3098 3099 3100 3102 3103 3103 3103 3105 3107 3108 3108 3109 3111 3112 3114 3117 3118 3120 3123 3125 3127 3129 3130 3129 3129 3129 3128 3127 3125 3122 3122 3125 3127 3130 3129 3125 3128 3132 3133 3135 3137 3138 3141 3143 3145 3146 3146 3147 3148 3149 3151
3086 3085 3086 3085 3085 3088 3089 3088 3090 3092 3091 3094 3096 3096 3100 3098 3087 3082 3086 3086 3082 3078 3079 3081 3080 3082 3084 3085 3086 3086 3087 3089 3089 3091 3092 3093 3094 3094 3095 3096 3098 3098 3098 3099 3102 3102 3103 3105 3106 3107 3107 3109 3111 3113 3113 3116 3119 3121 3123 3123 3123 3123 3124 3124 3123 3120 3118 3120 3122 3126 3127 3124 3122 3126 3128 3130 3133 3134 3135 3138 3140 3142 3143 3144 3144 3146 3147 3148
3081 3081 3081 3081 3081 3083 3085 3085 3086 3087 3089 3091 3091 3094 3095 3086 3076 3079 3083 3081 3079 3078 3078 3079 3079 3080 3081 3081 3083 3083 3084 3085 3086 3087 3089 3089 3090 3090 3091 3092 3094 3096 3096 3097 3096 3096 3097 3096 3097 3100 3101 3103 3105 3107 3109 3112 3115 3116 3118 3120 3119 3118 3118 3117 3117 3117 3117 3118 3120 3122 3122 3120 3120 3122 3124 3127 3130 3132 3133 3135 3137 3139 3141 3142 3142 3143 3144 3145
3077 3076 3076 3077 3077 3078 3080 3081 3081 3083 3085 3086 3088 3088 3082 3073 3072 3077 3077 3077 3078 3078 3077 3078 3079 3078 3078 3078 3079 3080 3081 3081 3082 3084 3084 3084 3084 3084 3086 3087 3088 3092 3094 3092 3091 3092 3092 3090 3092 3096 3098 3100 3101 3103 3108 3111 3111 3113 3117 3117 3113 3115 3117 3114 3112 3114 3117 3116 3115 3115 3113 3115 3119 3119 3121 3124 3126 3129 3131 3133 3135 3136 3137 3139 3140 3140 3141 3142
3073 3073 3072 3073 3073 3073 3075 3076 3077 3079 3080 3082 3083 3077 3067 3066 3071 3074 3073 3075 3076 3076 3076 3076 3075 3075 3074 3074 3075 3076 3077 3077 3078 3079 3079 3079 3080 3080 3081 3082 3084 3086 3088 3088 3088 3088 3088 3087 3090 3093 3094 3096 3098 3101 3105 3106 3105 3108 3112 3109 3108 3115 3118 3114 3112 3113 3114 3111 3109 3109 3108 3111 3115 3116 3118 3122 3123 3126 3128 3130 3132 3133 3134 3136 3138 3140 3140 3139
3069 3069 3069 3069 3068 3068 3070 3072 3074 3074 3075 3077 3073 3064 3061 3065 3068 3069 3071 3073 3073 3073 3074 3071 3070 3070 3070 3069 3070 3072 3074 3074 3075 3075 3075 3075 3074 3075 3077 3078 3080 3082 3084 3086 3085 3085 3085 3084 3086 3089 3090 3093 3097 3100 3102 3103 3103 3103 3103 3104 3110 3115 3115 3113 3110 3109 3109 3106 3103 3105 3104 3105 3108 3110 3114 3119 3120 3122 3125 3128 3129 3130 3131 3133 3135 3138 3137 3136
3064 3064 3066 3064 3063 3064 3066 3068 3069 3069 3070 3070 3063 3057 3059 3063 3064 3066 3068 3069 3070 3071 3069 3066 3065 3065 3065 3065 3065 3067 3069 3070 3071 3071 3071 3070 3069 3070 3073 3075 3076 3078 3081 3084 3083 3083 3084 3083 3082 3084 3087 3090 3095 3097 3098 3099 3100 3100 3100 3102 3106 3107 3106 3107 3106 3104 3105 3102 3100 3102 3101 3099 3103 3106 3110 3114 3116 3119 3122 3124 3125 3127 3128 3129 3131 3134 3135 3135
3059 3061 3062 3058 3057 3061 3063 3063 3064 3065 3064 3061 3055 3054 3056 3057 3059 3062 3064 3066 3067 3067 3065 3064 3063 3062 3062 3062 3062 3063 3064 3065 3066 3067 3067 3066 3065 3065 3068 3070 3072 3074 3077 3081 3081 3081 3082 3082 3080 3081 3085 3089 3091 3092 3091 3091 3095 3098 3099 3099 3099 3099 3100 3101 3102 3102 3102 3098 3097 3099 3097 3095 3098 3102 3106 3110 3112 3116 3118 3120 3122 3124 3125 3126 3127 3129 3131 3132
3056 3057 3059 3055 3054 3057 3059 3059 3060 3059 3057 3053 3051 3052 3054 3055 3056 3057 3059 3061 3062 3063 3062 3061 3061 3060 3058 3059 3059 3059 3060 3061 3062 3063 3062 3063 3063 3062 3064 3067 3069 3071 3074 3077 3079 3079 3080 3081 3079 3078 3082 3085 3083 3082 3083 3085 3088 3091 3093 3092 3093 3094 3096 3098 3098 3099 3099 3096 3094 3095 3092 3093 3097 3099 3101 3105 3109 3113 3114 3116 3118 3121 3122 3123 3124 3125 3127 3129
3052 3053 3055 3052 3050 3053 3054 3054 3054 3053 3051 3048 3047 3049 3050 3052 3053 3054 3055 3057 3057 3057 3058 3058 3058 3057 3056 3056 3056 3056 3057 3057 3057 3058 3058 3058 3059 3059 3061 3064 3066 3068 3070 3073 3075 3076 3077 3078 3078 3076 3076 3077 3077 3077 3081 3083 3084 3086 3087 3088 3089 3089 3092 3093 3090 3091 3095 3095 3093 3092 3089 3090 3095 3097 3098 3103 3107 3110 3112 3113 3115 3117 3119 3121 3122 3122 3123 3125
3049 3050 3052 3050 3047 3049 3050 3049 3049 3049 3047 3044 3044 3046 3047 3048 3049 3050 3051 3052 3052 3052 3053 3053 3053 3053 3053 3053 3053 3053 3054 3053 3053 3054 3054 3054 3055 3056 3058 3060 3063 3065 3067 3068 3070 3073 3075 3075 3075 3073 3071 3072 3074 3077 3079 3081 3083 3084 3084 3085 3088 3087 3087 3086 3084 3087 3091 3092 3093 3093 3088 3087 3092 3095 3097 3100 3104 3107 3109 3111 3113 3115 3117 3119 3120 3121 3120 3122
3043 3043 3046 3046 3044 3045 3046 3043 3044 3044 3042 3040 3041 3042 3043 3044 3044 3045 3046 3047 3047 3048 3048 3048 3048 3050 3050 3050 3050 3050 3051 3050 3050 3051 3052 3052 3053 3054 3056 3057 3060 3062 3064 3065 3067 3070 3072 3071 3071 3072 3071 3071 3072 3075 3076 3078 3080 3080 3078 3081 3083 3083 3083 3083 3084 3087 3088 3086 3089 3090 3085 3085 3092 3095 3096 3099 3101 3104 3106 3109 3111 3113 3115 3117 3118 3119 3119 3119
3038 3037 3039 3042 3041 3041 3041 3039 3039 3040 3038 3038 3038 3038 3039 3039 3039 3040 3041 3042 3042 3043 3043 3043 3044 3046 3047 3048 3048 3047 3047 3047 3047 3049 3051 3051 3051 3053 3054 3055 3057 3059 3061 3062 3063 3065 3066 3067 3067 3068 3068 3068 3067 3069 3070 3071 3073 3073 3073 3075 3077 3078 3081 3082 3084 3085 3083 3081 3086 3084 3079 3084 3091 3094 3096 3098 3099 3101 3104 3107 3109 3111 3113 3115 3116 3116 3116 3117
3032 3032 3034 3036 3036 3035 3035 3035 3036 3036 3035 3035 3034 3033 3034 3033 3033 3034 3036 3036 3037 3039 3039 3039 3040 3042 3043 3045 3045 3044 3044 3044 3044 3047 3048 3048 3049 3050 3052 3052 3053 3056 3058 3059 3060 3061 3061 3062 3064 3062 3061 3060 3059 3059 3061 3064 3067 3069 3070 3071 3072 3074 3077 3079 3081 3080 3076 3079 3084 3080 3076 3083 3090 3092 3094 3096 3098 3100 3103 3105 3107 3108 3110 3112 3113 3113 3114 3116
3029 3030 3031 3033 3033 3032 3030 3031 3032 3031 3031 3030 3028 3028 3028 3027 3027 3030 3031 3031 3032 3034 3034 3035 3037 3038 3038 3040 3040 3039 3040 3041 3042 3044 3045 3046 3047 3047 3049 3050 3051 3053 3055 3054 3056 3059 3058 3058 3059 3058 3057 3056 3056 3057 3060 3063 3064 3066 3067 3069 3070 3071 3074 3077 3077 3074 3074 3079 3080 3077 3079 3084 3086 3088 3090 3092 3095 3098 3101 3103 3104 3105 3107 3108 3109 3110 3112 3114
3027 3026 3028 3030 3029 3028 3026 3027 3027 3025 3024 3024 3023 3022 3023 3024 3024 3025 3026 3027 3028 3030 3031 3031 3032 3033 3033 3035 3036 3035 3036 3038 3040 3040 3042 3044 3045 3045 3046 3047 3048 3050 3051 3052 3054 3055 3056 3054 3053 3056 3057 3057 3057 3058 3060 3062 3061 3061 3064 3066 3067 3068 3070 3072 3070 3070 3074 3076 3073 3075 3082 3083 3083 3085 3087 3088 3091 3094 3097 3100 3102 3103 3104 3106 3106 3107 3109 3110
3025 3023 3024 3025 3024 3023 3023 3023 3021 3019 3019 3020 3019 3019 3019 3020 3021 3022 3022 3023 3024 3026 3026 3026 3026 3028 3029 3031 3032 3032 3033 3034 3035 3036 3039 3041 3042 3043 3043 3043 3045 3047 3048 3051 3052 3053 3053 3052 3051 3054 3055 3057 3058 3057 3058 3060 3060 3060 3061 3063 3065 3066 3067 3066 3066 3069 3072 3070 3069 3075 3079 3079 3081 3084 3084 3085 3088 3090 3093 3096 3098 3100 3101 3103 3104 3105 3105 3107
3022 3020 3020 3020 3019 3019 3019 3019 3017 3016 3016 3017 3017 3017 3017 3017 3018 3019 3019 3019 3020 3021 3022 3023 3024 3026 3027 3028 3028 3028 3028 3029 3030 3032 3035 3038 3039 3040 3039 3039 3041 3043 3046 3048 3050 3051 3051 3050 3051 3053 3053 3054 3056 3056 3057 3058 3058 3058 3059 3060 3061 3062 3064 3064 3065 3067 3068 3067 3069 3074 3075 3075 3078 3081 3082 3084 3085 3087 3091 3092 3094 3096 3098 3099 3101 3102 3103 3104
3018 3017 3016 3016 3015 3015 3015 3015 3015 3013 3014 3014 3014 3014 3015 3015 3016 3016 3016 3015 3014 3014 3018 3020 3020 3020 3022 3023 3023 3023 3025 3026 3027 3029 3032 3034 3035 3036 3036 3035 3036 3039 3042 3044 3046 3049 3049 3048 3050 3053 3051 3051 3052 3054 3055 3055 3055 3055 3055 3056 3057 3058 3059 3061 3062 3063 3065 3065 3068 3071 3070 3071 3075 3078 3080 3082 3082 3083 3086 3088 3090 3092 3094 3096 3098 3099 3100 3102
3015 3014 3014 3013 3012 3012 3012 3012 3012 3012 3011 3012 3012 3013 3014 3014 3015 3014 3012 3011 3012 3012 3012 3011 3010 3010 3012 3015 3019 3022 3024 3025 3025 3027 3028 3030 3031 3032 3033 3033 3033 3035 3037 3039 3042 3045 3046 3047 3049 3051 3050 3047 3049 3051 3051 3052 3054 3052 3050 3051 3052 3053 3054 3055 3057 3059 3060 3062 3065 3067 3065 3067 3072 3076 3077 3079 3081 3080 3081 3084 3087 3089 3090 3092 3094 3095 3097 3099
3012 3011 3011 3010 3008 3008 3009 3008 3009 3009 3008 3009 3010 3011 3012 3012 3012 3012 3010 3009 3010 3010 3008 3006 3006 3007 3008 3011 3014 3016 3017 3018 3017 3018 3019 3021 3024 3027 3029 3030 3032 3032 3033 3036 3039 3040 3042 3044 3045 3047 3046 3044 3047 3049 3048 3051 3050 3045 3043 3045 3047 3048 3050 3051 3052 3055 3057 3059 3061 3061 3061 3065 3071 3074 3074 3075 3077 3078 3078 3080 3082 3084 3087 3089 3090 3091 3093 3094